User: anonymous   Login
Location: Unspecified
(0.0000°N, 0.0000°E)
Time: 09:00:49
(UTC+00:00)
Language:

TBA - TO BE ASSIGNED - Orbit

View from above orbital plane
View from above orbital plane
View from above satellite
View from above satellite

Ground track
Ground track

The orbit is defined by the following mean orbital elements,

1 68817U          26145.29966558 +.00000000 +00000-0 +12886-2 0 00008
2 68817  97.2853 351.9680 0001642  75.5497 284.5950 15.75251455    01
Epoch (UTC): 25 May 2026 07:11:31
Eccentricity: 0.0001642
inclination: 97.2853°
perigee height: 343 km
apogee height: 345 km
right ascension of ascending node: 351.9680°
argument of perigee: 75.5497°
revolutions per day: 15.75251455
mean anomaly at epoch: 284.5950°

The dashed part of the orbit path shows where the satellite is in the earth's shadow,  

DLR